Showing default

GONETS D1 1, 23787

Orbit data source: Space-Track

GONETS D1 1, 23787 is a payload satellite owned by Gonets (CIS) in LEO that was launched on Mon, 19 Feb 1996 UTC via a TSIKLON-3 launch vehicle from the Plesetsk Missile And Space Complex (PKMTR). Payload-class satellites include a variety of spacecraft equipped with specific instruments for various scientific and technological missions. These include communications satellites like Starlink; space stations such as the ISS; scientific satellites like the Hubble; Earth observation satellites from companies like Planet Labs, Umbra, and HawkEye 360; GPS; miniature CubeSats for education and research; and military/defense satellites.

Loading next visibility...
Identifier
23787, 1996-009A
Orbit
LEO
Country
Flag of CISCIS
Related business
Manufacturer
NPO PM
Mission
Non-operational Civil Communications
Bus & Motor
STRELA-3, Unknown motor
Mass
225 kg wet, 225 kg dry
Launch date (UTC)
1996-02-19 (31 years ago)
Launch vehicle
TSIKLON-3
Launch site
Plesetsk Missile And Space Complex (PKMTR)
Object type
Payload
Rocket body
Debris
Shape & HBR
Cyl + 1 Ant, 3.5 m
Radar Cross Section
1.798 m², Large (>1 m²)

Expand to show TLE details & history
Last TLE update: 21 hours ago

TLE from 21 hours ago
0 GONETS D1 1
1 23787U 96009A   26265.66661738  .00000030  00000-0  10775-3 0  9991
2 23787  82.5740 236.4596 0011052 174.5569 359.1303 12.64109131411622
Epoch: 2026-09-22T15:59Z
TLE epoch observation values (Epoch: 2026-09-22T15:59:55.741Z)
Latitude
6.18864°
Longitude
174.14274°
Altitude
1,399.571 km
Speed
7.165 km/s
True Right ascension
03h 42m 36s
True Declination
6° 09' 18"
Sunlit
Object was in daylight at epoch
Visualization orbit readout
Latitude
Unknown
Longitude
Unknown
Altitude
Unknown
Speed
Unknown
Apparent Right ascension
Unknown
Apparent Declination
Unknown
Sunlit
N/A
Visualization observer readout
Local Sidereal Time
06:08:01
Azimuth
Unknown
Elevation
Unknown
Doppler factor
Unknown
Orbital elements
Apogee altitude
1,411.948 km
Perigee altitude
1,394.748 km
Semi-major axis
7,781.485 km
Eccentricity
0.00111
Inclination
82.574°
RAAN
236.4596°
Arg. of periapsis
174.5569°
True anomaly
359.12838°
Mean anomaly
359.1303°
Eccentric anomaly
359.12934°
Mean motion
3.16191 °/min
Orbital period
113.86 mins
BSTAR
0.00010775
Loading maneuver chart data...
Computing Atmospheric mass density...
Loading historical data...
Loading historical data...
Loading historical data...
Loading historical data...
Loading historical data...
Loading historical data...
Loading historical data...

Documentation

Showing up to 5 results
|